Regional Weather Roundup
Issued by NWS Wakefield, VA

Home | Current Version | Previous Version | Graphics & Text | Print | Product List | Glossary On
Versions: 1 2 3 4 5 6 7 8 9 10 11 12 13 14 15 16 17 18 19 20 21 22 23 24 25 26 27 28 29 30 31 32 33 34 35 36 37 38 39 40 41 42 43 44 45 46 47 48 49 50
000
ASUS41 KAKQ 211610
RWRAKQ

REGIONAL WEATHER ROUNDUP
NATIONAL WEATHER SERVICE WAKEFIELD VA
1200 PM EDT SUN SEP 21 2014

Note: "fair" indicates few or no clouds below 12,000 feet with no
significant weather and/or obstructions to visibility. * = Denotes
station may not report precipitation (e.g., rain,snow,etc.),
thunder or fog.

VAZ042-051-052>054-056-211700-
NORTHERN VIRGINIA

CITY           SKY/WX    TMP DP  RH WIND       PRES   REMARKS
WASH NATIONAL  PTSUNNY   76  61  59 E3        29.83F
DULLES         MOSUNNY   75  60  59 S6        29.83F
FORT BELVOIR   MOSUNNY   76  61  60 CALM      29.83F
QUANTICO       MOSUNNY   73  63  70 S6        29.84F
FREDERICKSBRG* MOSUNNY   77  63  62 CALM      29.83F
STAFFORD*      MOSUNNY   74  62  65 S3        29.87F
WARRENTON      MOSUNNY   81  66  60 S7        29.82F
CULPEPER*      SUNNY     81  57  44 S6        29.82F
MANASSAS*      SUNNY     75  63  64 S6        29.83F
LEESBURG*      SUNNY     77  64  65 S7        29.83F
WINCHESTER     SUNNY     81  57  44 S7        29.81F
FRONT ROYAL*   SUNNY     79  61  53 S6        29.81F
LURAY*         SUNNY     81  61  50 S6        29.83F
$$

VAZ048-049-060>072-079>083-211700-
CENTRAL AND SOUTH CENTRAL VIRGINIA...AND NORTH CENTRAL NORTH CAROLINA

CITY           SKY/WX    TMP DP  RH WIND       PRES   REMARKS
RICHMOND       PTSUNNY   78  61  55 NW8       29.84F
CHESTERFIELD*  MOSUNNY   79  57  47 NW6       29.86F
PETERSBURG*    MOSUNNY   74  60  62 N3        29.85F
HANOVER        PTSUNNY   76  62  62 NW6       29.85F
TAPPAHANNOCK*  PTSUNNY   78  61  55 CALM      29.83F
CHARLOTTSVILLE SUNNY     80  61  52 VRB7      29.83F
ORANGE*        SUNNY     79  61  53 E6        29.83F
LOUISA*        SUNNY     81  61  50 E3        29.83F
FARMVILLE*     SUNNY     82  57  42 SW5       29.83F
CREWE*         MOSUNNY   78  60  54 SW3       29.85F
FORT PICKETT*  MOSUNNY   76  63  63 W5        29.86F
LUNENBURG*     MOSUNNY   77  64  65 CALM      29.86F
SOUTH HILL*    MOSUNNY   81  63  54 CALM      29.91F
LAWRENCEVILLE* MOSUNNY   77  63  63 W5        29.85F
ROANOKE RAPIDS MOSUNNY   77  61  57 NW8       29.85F
RALEIGH        PTSUNNY   77  62  59 VRB3      29.90F
$$

VAZ088>098-211700-
SOUTHEAST VIRGINIA

CITY           SKY/WX    TMP DP  RH WIND       PRES   REMARKS
NORFOLK        CLOUDY    73  69  87 N10       29.79F
VIRGINIA BEACH CLOUDY    76  72  87 N15       29.77F
NORFOLK NAVAL  CLOUDY    74  69  85 NW12      29.81F
WEST POINT*    PTSUNNY   77  65  66 NW7       29.83F
NEWPORT NEWS   CLOUDY    77  67  71 NW9       29.81S
LANGLEY AFB    CLOUDY    75  71  88 NW8       29.79F
FORT EUSTIS    PTSUNNY   73  73 100 NW9       29.80F
WILLIAMSBURG*  PTSUNNY   77  68  73 N7        29.83F
HR EXEC AP*    CLOUDY    72  68  88 N3        29.82F
FRANKLIN*      PTSUNNY   75  64  69 NW9       29.82F
WAKEFIELD      PTSUNNY   76  64  66 N7        29.83F
$$

VAZ020-022-025-037-045-211700-
WEST CENTRAL AND SOUTHWEST VIRGINIA

CITY           SKY/WX    TMP DP  RH WIND       PRES   REMARKS
STAUNTON*      SUNNY     79  57  46 CALM      29.87F
HOT SPRINGS VA PTSUNNY   65  49  57 W13G18    29.99F
LYNCHBURG      SUNNY     76  64  66 SW7       29.89F
DANVILLE       SUNNY     78  62  57 SW7       29.89F
SOUTH BOSTON*  NOT AVBL
MARTINSVILLE   SUNNY     81  63  53 CALM      29.93S
ROANOKE        MOSUNNY   77  61  57 W12       29.90F
BLACKSBURG     SUNNY     73  66  78 W9        29.96F
DUBLIN*        MOSUNNY   75  64  69 W10       29.96F
MARION*        PTSUNNY   71  62  75 SW12G24   30.02S
HILLSVILLE*    PTSUNNY   71  62  71 W12G21    29.99S
RICHLANDS*     MOSUNNY   73  64  73 W12G20    30.01F
WISE*          MOSUNNY   72  61  68 SW15      30.02F
ABINGDON*      CLOUDY    72  64  74 W10G16    30.02F
$$

MDZ021>025-VAZ099-100-211700-
SOUTHERN MARYLAND AND THE DELMARVA PENINSULA

CITY           SKY/WX    TMP DP  RH WIND       PRES   REMARKS
PATUXENT RIVER PTSUNNY   78  65  63 N8        29.81F
BAY BRIDGE APT   N/A     70  63  78 N6        29.82F
LEONARDTOWN    MOSUNNY   73  63  68 CALM      29.82F
DOVER          CLOUDY    72  70  94 N7        29.79F
GEORGETOWN     CLOUDY    76  68  76 NE9       29.80F
EASTON         CLOUDY    72  72 100 CALM      29.85
CAMBRIDGE      CLOUDY    72  68  88 N5        29.80F
SALISBURY      CLOUDY    77  69  76 N5        29.78F
OCEAN CITY     CLOUDY    77  70  79 NE8       29.78F
WALLOPS ISLAND CLOUDY    78  72  81 NE6       29.78F
ACCOMACK*      CLOUDY    73  68  83 CALM      29.77F
$$

NCZ012>017-030>032-211700-
EASTERN NORTH CAROLINA

CITY           SKY/WX    TMP DP  RH WIND       PRES   REMARKS
ELIZABETH CITY CLOUDY    76  70  82 NW15G22   29.78F
AHOSKIE*       MOSUNNY   71  64  80 NW5       29.84F
EDENTON*       PTSUNNY   74  70  87 N12       29.80F
CURRITUCK*     CLOUDY    75  70  82 N10G16    29.78F
KILL DEVIL HLS CLOUDY    76  71  85 N10G22    29.74S
MANTEO         CLOUDY    73  70  91 N15G22    29.76S
CAPE HATTERAS  CLOUDY    74  71  91 NW9G22    29.74R
TARBORO*       MOSUNNY   78  63  60 NW6       29.85F
GOLDSBORO      MOSUNNY   76  67  72 VRB1      29.86F
WASHINGTON     CLOUDY    72  67  83 NW10      29.84S
GREENVILLE     MOSUNNY   73  66  78 NW8       29.88S
NEW BERN       MOSUNNY   79  68  69 NW8       29.84F
WILMINGTON     PTSUNNY   73  66  78 NW12G22   29.88S
$$

VAZ048-211700-
ELSEWHERE

CITY           SKY/WX    TMP DP  RH WIND       PRES   REMARKS
HARRISBURG PA  MOSUNNY   73  61  65 SE6       29.81F
BALTIMORE      PTSUNNY   75  63  66 CALM      29.82F
ANNAPOLIS      PTSUNNY   73  64  73 CALM      29.82F
ANDREWS AFB    MOSUNNY   75  64  67 VRB2      29.83F
WILMINGTON DE  CLOUDY    74  65  73 CALM      29.82F
PHILADELPHIA   CLOUDY    72  65  78 E5        29.82F
WILDWOOD NJ*   CLOUDY    75  66  73 NE5       29.80F
ATLANTIC CITY  CLOUDY    75  68  78 E7        29.80F
HENDERSON NC   PTSUNNY   75  61  61 W5        29.89F
GREENSBORO     MOSUNNY   80  61  52 W9        29.91F
ROCKY MOUNT    MOSUNNY   78  61  55 NW13      29.87F
FAYETTEVILLE   PTSUNNY   80  60  50 NW12      29.91S
CHARLOTTE      SUNNY     79  61  53 W6        29.96F
$$

VAZ100-211700-
MARINE

STATION/POSITION TIME  TEMP    WIND        PRES    WAVE   SWELL
                       AIR SEA DIR/SP/G            HT/PER HT/PER
                 (UTC) (F)     (DEG/KT/KT) (MB)    (FT/S) (FT/S)
44066 TX TWR #4  1600   72 71   90/  8/ 10 1009.2F   5/ 8   5/ 8
CAPE MAY NJ      1600   74 75  100/  2/  3 1008.7F
LEWES DE         1600   71 72   50/  7/  8 1008.9F
15NM E FENWICK I 1600   72 72              1008.2F   4/ 8
OCEAN-CITY-INLET 1600   72 72   20/  6/  9 1008.1F
WACHAPREAGUE VA  1600   72 73   20/  4/  7 1008.5F
THOMAS POINT MD  1600   68 74   30/  6/  7 1010.7F
GOOSES REEF MD   1600   70     360/  8/ 10 1010.4F
COVE POINT MD    1600   69     360/ 10/ 13 1009.8F
SOLOMONS ISLAND  1600      76                N/A
BISHOPS HEAD MD  1600   71 72  340/  8/ 10 1009.0F
PINEY POINT MD   1600          320/  8/  9   N/A
POTOMAC MD       1600   71     360/  6/ 10 1009.0F
CAMBRIDGE MD     1600   68 74  350/  7/ 10 1009.5S
LEWISETTA VA     1600   71 74  320/ 10/ 12 1009.6R
RAPPAHANNOCK LGT 1600          340/ 13/ 14 1009.2F
STINGRAY PT      1600   72     360/ 12/ 14   N/A
YORK RVR RNG VA  1600   72     350/ 10/ 11 1008.7F
YORKTOWN VA      1600   71 76  300/ 14/ 16 1009.1S
JAMESTOWN VA     1600   69     340/  8/ 12   N/A
DOMINION TERM VA 1600   73     340/  7/  9 1009.3F
KIPTOPEKE VA     1600      78  360/  8/ 11   N/A
CHES BAY BRIDGE  1600   72 75  340/ 14/ 15 1008.2F
CAPE HENRY VA    1600   72     350/ 15/ 18 1007.4F
CHESAPEAKE LGHT  1500   72      10/ 18/ 19 1009.0R
WILLOUBY STN VA  1600   72     360/  8/ 10 1007.8F
S CRANEY ISL VA  1600          310/  6/  9 1008.7F
CAPE HENRY BUOY  1600      75                N/A     5/ 8
1ST LANDING BUOY 1600   73     360/ 14/ 16 1008.3F
CAPE CHARLES BUO 1600      74                N/A     5/ 8   3/ 8
OFFSHORE WE BUOY 1600      74                N/A     6/ 8   5/ 8
64NM E OF VA BCH 1600   74 71   10/ 19/ 23 1005.4S   7/ 8   5/ 8
DUCK PIER NC     1600   73 74  340/ 22/ 25 1006.5F
44100 DUCK FRF   1600      74                N/A     7/ 8   2/11
44056 DUCK FRF   1600                        N/A     6/ 8   2/11
OREGON INLET NC  1600   76 74  340/ 14/ 23 1006.9R
HATTERAS NC      1600   74 74  330/ 18/ 21 1007.7R
DIAMOND SHLS NC  1600   76     320/ 25/ 29 1005.7R   9/ 9   7/ 9
CAPE LOOKOUT NC  1500   74     320/ 15/ 18 1009.0R
$$



USA.gov is the U.S. government's official web portal to all federal, state and local government web resources and services.